Year,Month,Day,Hour,Minute,Value (Times are PST for temperature in C)
2010,11,04,00,00,11.70
2010,11,04,00,01,11.70
2010,11,04,00,02,11.70
2010,11,04,00,03,11.70
2010,11,04,00,04,11.80
2010,11,04,00,05,11.80
2010,11,04,00,06,11.80
2010,11,04,00,07,11.80
2010,11,04,00,08,11.80
2010,11,04,00,09,11.80
2010,11,04,00,10,11.80
2010,11,04,00,11,11.80
2010,11,04,00,12,11.80
2010,11,04,00,13,11.80
2010,11,04,00,14,11.80
2010,11,04,00,15,11.80
2010,11,04,00,16,11.70
2010,11,04,00,17,11.70
2010,11,04,00,18,11.70
2010,11,04,00,19,11.70
2010,11,04,00,20,11.60
2010,11,04,00,21,11.60
2010,11,04,00,22,11.60
2010,11,04,00,23,11.60
2010,11,04,00,24,11.60
2010,11,04,00,25,11.60
2010,11,04,00,26,11.60
2010,11,04,00,27,11.60
2010,11,04,00,28,11.60
2010,11,04,00,29,11.60
2010,11,04,00,30,11.60
2010,11,04,00,31,11.60
2010,11,04,00,32,11.60
2010,11,04,00,33,11.60
2010,11,04,00,34,11.60
2010,11,04,00,35,11.50
2010,11,04,00,36,11.40
2010,11,04,00,37,11.40
2010,11,04,00,38,11.40
2010,11,04,00,39,11.30
2010,11,04,00,40,11.30
2010,11,04,00,41,11.40
2010,11,04,00,42,11.40
2010,11,04,00,43,11.40
2010,11,04,00,44,11.40
2010,11,04,00,45,11.40
2010,11,04,00,46,11.40
2010,11,04,00,47,11.40
2010,11,04,00,48,11.30
2010,11,04,00,49,11.30
2010,11,04,00,50,11.40
2010,11,04,00,51,11.40
2010,11,04,00,52,11.40
2010,11,04,00,53,11.40
2010,11,04,00,54,11.40
2010,11,04,00,55,11.40
2010,11,04,00,56,11.40
2010,11,04,00,57,11.40
2010,11,04,00,58,11.40
2010,11,04,00,59,11.40
2010,11,04,01,00,11.30
2010,11,04,01,01,11.20
2010,11,04,01,02,11.20
2010,11,04,01,03,11.20
2010,11,04,01,04,11.30
2010,11,04,01,05,11.30
2010,11,04,01,06,11.30
2010,11,04,01,07,11.40
2010,11,04,01,08,11.40
2010,11,04,01,09,11.40
2010,11,04,01,10,11.40
2010,11,04,01,11,11.40
2010,11,04,01,12,11.40
2010,11,04,01,13,11.40
2010,11,04,01,14,11.50
2010,11,04,01,15,11.50
2010,11,04,01,16,11.40
2010,11,04,01,17,11.40
2010,11,04,01,18,11.40
2010,11,04,01,19,11.40
2010,11,04,01,20,11.40
2010,11,04,01,21,11.40
2010,11,04,01,22,11.40
2010,11,04,01,23,11.40
2010,11,04,01,24,11.30
2010,11,04,01,25,11.30
2010,11,04,01,26,11.20
2010,11,04,01,27,11.00
2010,11,04,01,28,10.90
2010,11,04,01,29,10.70
2010,11,04,01,30,10.50
2010,11,04,01,31,10.40
2010,11,04,01,32,10.20
2010,11,04,01,33,10.10
2010,11,04,01,34,9.90
2010,11,04,01,35,9.80
2010,11,04,01,36,9.70
2010,11,04,01,37,9.70
2010,11,04,01,38,9.70
2010,11,04,01,39,9.70
2010,11,04,01,40,9.70
2010,11,04,01,41,9.60
2010,11,04,01,42,9.60
2010,11,04,01,43,9.50
2010,11,04,01,44,9.50
2010,11,04,01,45,9.40
2010,11,04,01,46,9.50
2010,11,04,01,47,9.50
2010,11,04,01,48,9.60
2010,11,04,01,49,9.60
2010,11,04,01,50,9.70
2010,11,04,01,51,9.70
2010,11,04,01,52,9.70
2010,11,04,01,53,9.70
2010,11,04,01,54,9.70
2010,11,04,01,55,9.70
2010,11,04,01,56,9.70
2010,11,04,01,57,9.60
2010,11,04,01,58,9.60
2010,11,04,01,59,9.50
2010,11,04,02,00,9.40
2010,11,04,02,01,9.30
2010,11,04,02,02,9.30
2010,11,04,02,03,9.20
2010,11,04,02,04,9.20
2010,11,04,02,05,9.20
2010,11,04,02,06,9.20
2010,11,04,02,07,9.20
2010,11,04,02,08,9.20
2010,11,04,02,09,9.20
2010,11,04,02,10,9.20
2010,11,04,02,11,9.20
2010,11,04,02,12,9.20
2010,11,04,02,13,9.10
2010,11,04,02,14,9.00
2010,11,04,02,15,9.00
2010,11,04,02,16,9.00
2010,11,04,02,17,9.00
2010,11,04,02,18,8.90
2010,11,04,02,19,8.90
2010,11,04,02,20,8.80
2010,11,04,02,21,8.70
2010,11,04,02,22,8.70
2010,11,04,02,23,8.70
2010,11,04,02,24,8.70
2010,11,04,02,25,8.70
2010,11,04,02,26,8.70
2010,11,04,02,27,8.70
2010,11,04,02,28,8.80
2010,11,04,02,29,8.80
2010,11,04,02,30,8.90
2010,11,04,02,31,9.00
2010,11,04,02,32,9.00
2010,11,04,02,33,9.10
2010,11,04,02,34,9.10
2010,11,04,02,35,9.20
2010,11,04,02,36,9.20
2010,11,04,02,37,9.20
2010,11,04,02,38,9.30
2010,11,04,02,39,9.30
2010,11,04,02,40,9.30
2010,11,04,02,41,9.30
2010,11,04,02,42,9.20
2010,11,04,02,43,9.30
2010,11,04,02,44,9.30
2010,11,04,02,45,9.30
2010,11,04,02,46,9.30
2010,11,04,02,47,9.30
2010,11,04,02,48,9.30
2010,11,04,02,49,9.30
2010,11,04,02,50,9.30
2010,11,04,02,51,9.30
2010,11,04,02,52,9.30
2010,11,04,02,53,9.20
2010,11,04,02,54,9.20
2010,11,04,02,55,9.20
2010,11,04,02,56,9.20
2010,11,04,02,57,9.20
2010,11,04,02,58,9.20
2010,11,04,02,59,9.20
2010,11,04,03,00,9.20
2010,11,04,03,01,9.20
2010,11,04,03,02,9.20
2010,11,04,03,03,9.20
2010,11,04,03,04,9.20
2010,11,04,03,05,9.20
2010,11,04,03,06,9.20
2010,11,04,03,07,9.30
2010,11,04,03,08,9.30
2010,11,04,03,09,9.30
2010,11,04,03,10,9.30
2010,11,04,03,11,9.30
2010,11,04,03,12,9.30
2010,11,04,03,13,9.30
2010,11,04,03,14,9.30
2010,11,04,03,15,9.30
2010,11,04,03,16,9.30
2010,11,04,03,17,9.40
2010,11,04,03,18,9.50
2010,11,04,03,19,9.70
2010,11,04,03,20,9.80
2010,11,04,03,21,9.90
2010,11,04,03,22,10.00
2010,11,04,03,23,10.10
2010,11,04,03,24,10.20
2010,11,04,03,25,10.20
2010,11,04,03,26,10.30
2010,11,04,03,27,10.30
2010,11,04,03,28,10.30
2010,11,04,03,29,10.30
2010,11,04,03,30,10.30
2010,11,04,03,31,10.30
2010,11,04,03,32,10.30
2010,11,04,03,33,10.30
2010,11,04,03,34,10.30
2010,11,04,03,35,10.20
2010,11,04,03,36,10.20
2010,11,04,03,37,10.20
2010,11,04,03,38,10.20
2010,11,04,03,39,10.20
2010,11,04,03,40,10.10
2010,11,04,03,41,10.10
2010,11,04,03,42,10.10
2010,11,04,03,43,10.10
2010,11,04,03,44,10.10
2010,11,04,03,45,10.00
2010,11,04,03,46,9.90
2010,11,04,03,47,9.80
2010,11,04,03,48,9.80
2010,11,04,03,49,9.70
2010,11,04,03,50,9.70
2010,11,04,03,51,9.70
2010,11,04,03,52,9.70
2010,11,04,03,53,9.70
2010,11,04,03,54,9.60
2010,11,04,03,55,9.50
2010,11,04,03,56,9.40
2010,11,04,03,57,9.30
2010,11,04,03,58,9.20
2010,11,04,03,59,9.20
2010,11,04,04,00,9.20
2010,11,04,04,01,9.20
2010,11,04,04,02,9.20
2010,11,04,04,03,9.20
2010,11,04,04,04,9.20
2010,11,04,04,05,9.20
2010,11,04,04,06,9.20
2010,11,04,04,07,9.20
2010,11,04,04,08,9.20
2010,11,04,04,09,9.20
2010,11,04,04,10,9.30
2010,11,04,04,11,9.30
2010,11,04,04,12,9.30
2010,11,04,04,13,9.30
2010,11,04,04,14,9.30
2010,11,04,04,15,9.40
2010,11,04,04,16,9.40
2010,11,04,04,17,9.40
2010,11,04,04,18,9.30
2010,11,04,04,19,9.20
2010,11,04,04,20,9.10
2010,11,04,04,21,9.10
2010,11,04,04,22,9.10
2010,11,04,04,23,9.10
2010,11,04,04,24,9.20
2010,11,04,04,25,9.20
2010,11,04,04,26,9.20
2010,11,04,04,27,9.30
2010,11,04,04,28,9.30
2010,11,04,04,29,9.30
2010,11,04,04,30,9.20
2010,11,04,04,31,9.10
2010,11,04,04,32,8.90
2010,11,04,04,33,8.80
2010,11,04,04,34,8.70
2010,11,04,04,35,8.60
2010,11,04,04,36,8.50
2010,11,04,04,37,8.50
2010,11,04,04,38,8.40
2010,11,04,04,39,8.40
2010,11,04,04,40,8.50
2010,11,04,04,41,8.50
2010,11,04,04,42,8.50
2010,11,04,04,43,8.50
2010,11,04,04,44,8.60
2010,11,04,04,45,8.60
2010,11,04,04,46,8.70
2010,11,04,04,47,8.70
2010,11,04,04,48,8.70
2010,11,04,04,49,8.70
2010,11,04,04,50,8.70
2010,11,04,04,51,8.70
2010,11,04,04,52,8.70
2010,11,04,04,53,8.70
2010,11,04,04,54,8.70
2010,11,04,04,55,8.70
2010,11,04,04,56,8.70
2010,11,04,04,57,8.60
2010,11,04,04,58,8.50
2010,11,04,04,59,8.40
2010,11,04,05,00,8.30
2010,11,04,05,01,8.20
2010,11,04,05,02,8.10
2010,11,04,05,03,8.00
2010,11,04,05,04,7.90
2010,11,04,05,05,7.80
2010,11,04,05,06,7.80
2010,11,04,05,07,7.80
2010,11,04,05,08,7.70
2010,11,04,05,09,7.70
2010,11,04,05,10,7.60
2010,11,04,05,11,7.60
2010,11,04,05,12,7.50
2010,11,04,05,13,7.50
2010,11,04,05,14,7.60
2010,11,04,05,15,7.60
2010,11,04,05,16,7.60
2010,11,04,05,17,7.60
2010,11,04,05,18,7.70
2010,11,04,05,19,7.70
2010,11,04,05,20,7.80
2010,11,04,05,21,7.80
2010,11,04,05,22,7.80
2010,11,04,05,23,7.70
2010,11,04,05,24,7.70
2010,11,04,05,25,7.70
2010,11,04,05,26,7.70
2010,11,04,05,27,7.70
2010,11,04,05,28,7.70
2010,11,04,05,29,7.80
2010,11,04,05,30,7.80
2010,11,04,05,31,7.70
2010,11,04,05,32,7.70
2010,11,04,05,33,7.70
2010,11,04,05,34,7.70
2010,11,04,05,35,7.70
2010,11,04,05,36,7.70
2010,11,04,05,37,7.70
2010,11,04,05,38,7.70
2010,11,04,05,39,7.60
2010,11,04,05,40,7.60
2010,11,04,05,41,7.50
2010,11,04,05,42,7.50
2010,11,04,05,43,7.40
2010,11,04,05,44,7.30
2010,11,04,05,45,7.30
2010,11,04,05,46,7.30
2010,11,04,05,47,7.30
2010,11,04,05,48,7.30
2010,11,04,05,49,7.30
2010,11,04,05,50,7.30
2010,11,04,05,51,7.40
2010,11,04,05,52,7.40
2010,11,04,05,53,7.40
2010,11,04,05,54,7.40
2010,11,04,05,55,7.40
2010,11,04,05,56,7.40
2010,11,04,05,57,7.40
2010,11,04,05,58,7.40
2010,11,04,05,59,7.40
2010,11,04,06,00,7.40
2010,11,04,06,01,7.40
2010,11,04,06,02,7.50
2010,11,04,06,03,7.60
2010,11,04,06,04,7.60
2010,11,04,06,05,7.70
2010,11,04,06,06,7.70
2010,11,04,06,07,7.80
2010,11,04,06,08,7.80
2010,11,04,06,09,7.80
2010,11,04,06,10,7.80
2010,11,04,06,11,7.80
2010,11,04,06,12,7.80
2010,11,04,06,13,7.80
2010,11,04,06,14,7.80
2010,11,04,06,15,7.80
2010,11,04,06,16,7.80
2010,11,04,06,17,7.80
2010,11,04,06,18,7.80
2010,11,04,06,19,7.80
2010,11,04,06,20,7.80
2010,11,04,06,21,7.80
2010,11,04,06,22,7.70
2010,11,04,06,23,7.70
2010,11,04,06,24,7.70
2010,11,04,06,25,7.70
2010,11,04,06,26,7.60
2010,11,04,06,27,7.60
2010,11,04,06,28,7.60
2010,11,04,06,29,7.60
2010,11,04,06,30,7.60
2010,11,04,06,31,7.60
2010,11,04,06,32,7.50
2010,11,04,06,33,7.50
2010,11,04,06,34,7.40
2010,11,04,06,35,7.40
2010,11,04,06,36,7.30
2010,11,04,06,37,7.30
2010,11,04,06,38,7.40
2010,11,04,06,39,7.40
2010,11,04,06,40,7.40
2010,11,04,06,41,7.50
2010,11,04,06,42,7.50
2010,11,04,06,43,7.40
2010,11,04,06,44,7.40
2010,11,04,06,45,7.40
2010,11,04,06,46,7.40
2010,11,04,06,47,7.30
2010,11,04,06,48,7.30
2010,11,04,06,49,7.40
2010,11,04,06,50,7.40
2010,11,04,06,51,7.50
2010,11,04,06,52,7.50
2010,11,04,06,53,7.60
2010,11,04,06,54,7.60
2010,11,04,06,55,7.60
2010,11,04,06,56,7.60
2010,11,04,06,57,7.60
2010,11,04,06,58,7.60
2010,11,04,06,59,7.60
2010,11,04,07,00,7.50
2010,11,04,07,01,7.50
2010,11,04,07,02,7.50
2010,11,04,07,03,7.50
2010,11,04,07,04,7.50
2010,11,04,07,05,7.50
2010,11,04,07,06,7.40
2010,11,04,07,07,7.40
2010,11,04,07,08,7.40
2010,11,04,07,09,7.30
2010,11,04,07,10,7.30
2010,11,04,07,11,7.30
2010,11,04,07,12,7.20
2010,11,04,07,13,7.20
2010,11,04,07,14,7.20
2010,11,04,07,15,7.20
2010,11,04,07,16,7.30
2010,11,04,07,17,7.30
2010,11,04,07,18,7.30
2010,11,04,07,19,7.30
2010,11,04,07,20,7.30
2010,11,04,07,21,7.30
2010,11,04,07,22,7.30
2010,11,04,07,23,7.30
2010,11,04,07,24,7.30
2010,11,04,07,25,7.20
2010,11,04,07,26,7.10
2010,11,04,07,27,7.10
2010,11,04,07,28,7.10
2010,11,04,07,29,7.00
2010,11,04,07,30,7.00
2010,11,04,07,31,7.00
2010,11,04,07,32,7.00
2010,11,04,07,33,7.00
2010,11,04,07,34,7.00
2010,11,04,07,35,7.00
2010,11,04,07,36,6.90
2010,11,04,07,37,6.90
2010,11,04,07,38,7.00
2010,11,04,07,39,7.00
2010,11,04,07,40,7.00
2010,11,04,07,41,7.00
2010,11,04,07,42,7.00
2010,11,04,07,43,7.00
2010,11,04,07,44,7.10
2010,11,04,07,45,7.10
2010,11,04,07,46,7.10
2010,11,04,07,47,7.10
2010,11,04,07,48,7.10
2010,11,04,07,49,7.10
2010,11,04,07,50,7.20
2010,11,04,07,51,7.20
2010,11,04,07,52,7.20
2010,11,04,07,53,7.20
2010,11,04,07,54,7.20
2010,11,04,07,55,7.20
2010,11,04,07,56,7.10
2010,11,04,07,57,7.10
2010,11,04,07,58,7.10
2010,11,04,07,59,7.00
2010,11,04,08,00,7.00
2010,11,04,08,01,6.90
2010,11,04,08,02,6.80
2010,11,04,08,03,6.80
2010,11,04,08,04,6.70
2010,11,04,08,05,6.60
2010,11,04,08,06,6.60
2010,11,04,08,07,6.60
2010,11,04,08,08,6.60
2010,11,04,08,09,6.60
2010,11,04,08,10,6.60
2010,11,04,08,11,6.60
2010,11,04,08,12,6.60
2010,11,04,08,13,6.70
2010,11,04,08,14,6.80
2010,11,04,08,15,6.80
2010,11,04,08,16,6.80
2010,11,04,08,17,6.80
2010,11,04,08,18,6.80
2010,11,04,08,19,6.90
2010,11,04,08,20,7.00
2010,11,04,08,21,7.00
2010,11,04,08,22,7.10
2010,11,04,08,23,7.10
2010,11,04,08,24,7.20
2010,11,04,08,25,7.20
2010,11,04,08,26,7.20
2010,11,04,08,27,7.30
2010,11,04,08,28,7.30
2010,11,04,08,29,7.30
2010,11,04,08,30,7.30
2010,11,04,08,31,7.30
2010,11,04,08,32,7.30
2010,11,04,08,33,7.30
2010,11,04,08,34,7.30
2010,11,04,08,35,7.30
2010,11,04,08,36,7.40
2010,11,04,08,37,7.40
2010,11,04,08,38,7.50
2010,11,04,08,39,7.50
2010,11,04,08,40,7.60
2010,11,04,08,41,7.60
2010,11,04,08,42,7.70
2010,11,04,08,43,7.80
2010,11,04,08,44,7.80
2010,11,04,08,45,7.80
2010,11,04,08,46,7.90
2010,11,04,08,47,7.90
2010,11,04,08,48,7.90
2010,11,04,08,49,8.00
2010,11,04,08,50,8.00
2010,11,04,08,51,8.00
2010,11,04,08,52,8.10
2010,11,04,08,53,8.10
2010,11,04,08,54,8.20
2010,11,04,08,55,8.20
2010,11,04,08,56,8.30
2010,11,04,08,57,8.30
2010,11,04,08,58,8.40
2010,11,04,08,59,8.40
2010,11,04,09,00,8.50
2010,11,04,09,01,8.50
2010,11,04,09,02,8.60
2010,11,04,09,03,8.60
2010,11,04,09,04,8.70
2010,11,04,09,05,8.70
2010,11,04,09,06,8.80
2010,11,04,09,07,8.80
2010,11,04,09,08,8.90
2010,11,04,09,09,8.90
2010,11,04,09,10,9.00
2010,11,04,09,11,9.00
2010,11,04,09,12,9.10
2010,11,04,09,13,9.10
2010,11,04,09,14,9.10
2010,11,04,09,15,9.10
2010,11,04,09,16,9.20
2010,11,04,09,17,9.20
2010,11,04,09,18,9.20
2010,11,04,09,19,9.20
2010,11,04,09,20,9.10
2010,11,04,09,21,9.10
2010,11,04,09,22,9.10
2010,11,04,09,23,9.10
2010,11,04,09,24,9.10
2010,11,04,09,25,9.00
2010,11,04,09,26,9.00
2010,11,04,09,27,9.00
2010,11,04,09,28,9.00
2010,11,04,09,29,8.90
2010,11,04,09,30,8.90
2010,11,04,09,31,8.90
2010,11,04,09,32,8.90
2010,11,04,09,33,8.80
2010,11,04,09,34,8.80
2010,11,04,09,35,8.70
2010,11,04,09,36,8.70
2010,11,04,09,37,8.70
2010,11,04,09,38,8.70
2010,11,04,09,39,8.70
2010,11,04,09,40,8.70
2010,11,04,09,41,8.70
2010,11,04,09,42,8.60
2010,11,04,09,43,8.60
2010,11,04,09,44,8.60
2010,11,04,09,45,8.60
2010,11,04,09,46,8.60
2010,11,04,09,47,8.60
2010,11,04,09,48,8.60
2010,11,04,09,49,8.60
2010,11,04,09,50,8.60
2010,11,04,09,51,8.70
2010,11,04,09,52,8.70
2010,11,04,09,53,8.70
2010,11,04,09,54,8.70
2010,11,04,09,55,8.80
2010,11,04,09,56,8.90
2010,11,04,09,57,9.00
2010,11,04,09,58,9.10
2010,11,04,09,59,9.20
2010,11,04,10,00,9.20
2010,11,04,10,01,9.40
2010,11,04,10,02,9.50
2010,11,04,10,03,9.50
2010,11,04,10,04,9.60
2010,11,04,10,05,9.70
2010,11,04,10,06,9.70
2010,11,04,10,07,9.70
2010,11,04,10,08,9.80
2010,11,04,10,09,9.90
2010,11,04,10,10,9.90
2010,11,04,10,11,9.90
2010,11,04,10,12,9.90
2010,11,04,10,13,10.00
2010,11,04,10,14,10.10
2010,11,04,10,15,10.10
2010,11,04,10,16,10.10
2010,11,04,10,17,10.10
2010,11,04,10,18,10.20
2010,11,04,10,19,10.20
2010,11,04,10,20,10.20
2010,11,04,10,21,10.30
2010,11,04,10,22,10.30
2010,11,04,10,23,10.30
2010,11,04,10,24,10.40
2010,11,04,10,25,10.40
2010,11,04,10,26,10.40
2010,11,04,10,27,10.40
2010,11,04,10,28,10.50
2010,11,04,10,29,10.60
2010,11,04,10,30,10.60
2010,11,04,10,31,10.60
2010,11,04,10,32,10.70
2010,11,04,10,33,10.80
2010,11,04,10,34,10.80
2010,11,04,10,35,10.90
2010,11,04,10,36,10.90
2010,11,04,10,37,10.90
2010,11,04,10,38,10.90
2010,11,04,10,39,11.00
2010,11,04,10,40,11.10
2010,11,04,10,41,11.10
2010,11,04,10,42,11.10
2010,11,04,10,43,11.10
2010,11,04,10,44,11.20
2010,11,04,10,45,11.20
2010,11,04,10,46,11.30
2010,11,04,10,47,11.30
2010,11,04,10,48,11.40
2010,11,04,10,49,11.40
2010,11,04,10,50,11.50
2010,11,04,10,51,11.60
2010,11,04,10,52,11.60
2010,11,04,10,53,11.60
2010,11,04,10,54,11.60
2010,11,04,10,55,11.60
2010,11,04,10,56,11.60
2010,11,04,10,57,11.60
2010,11,04,10,58,11.60
2010,11,04,10,59,11.60
2010,11,04,11,00,11.60
2010,11,04,11,01,11.60
2010,11,04,11,02,11.60
2010,11,04,11,03,11.50
2010,11,04,11,04,11.40
2010,11,04,11,05,11.40
2010,11,04,11,06,11.40
2010,11,04,11,07,11.40
2010,11,04,11,08,11.60
2010,11,04,11,09,11.60
2010,11,04,11,10,11.60
2010,11,04,11,11,11.60
2010,11,04,11,12,11.60
2010,11,04,11,13,11.60
2010,11,04,11,14,11.60
2010,11,04,11,15,11.60
2010,11,04,11,16,11.60
2010,11,04,11,17,11.60
2010,11,04,11,18,11.60
2010,11,04,11,19,11.60
2010,11,04,11,20,11.70
2010,11,04,11,21,11.70
2010,11,04,11,22,11.70
2010,11,04,11,23,11.70
2010,11,04,11,24,11.70
2010,11,04,11,25,11.70
2010,11,04,11,26,11.70
2010,11,04,11,27,11.70
2010,11,04,11,28,11.70
2010,11,04,11,29,11.70
2010,11,04,11,30,11.70
2010,11,04,11,31,11.70
2010,11,04,11,32,11.70
2010,11,04,11,33,11.70
2010,11,04,11,34,11.60
2010,11,04,11,35,11.60
2010,11,04,11,36,11.60
2010,11,04,11,37,11.60
2010,11,04,11,38,11.60
2010,11,04,11,39,11.60
2010,11,04,11,40,11.60
2010,11,04,11,41,11.60
2010,11,04,11,42,11.60
2010,11,04,11,43,11.60
2010,11,04,11,44,11.50
2010,11,04,11,45,11.40
2010,11,04,11,46,11.40
2010,11,04,11,47,11.30
2010,11,04,11,48,11.30
2010,11,04,11,49,11.20
2010,11,04,11,50,11.20
2010,11,04,11,51,11.10
2010,11,04,11,52,11.10
2010,11,04,11,53,11.10
2010,11,04,11,54,11.10
2010,11,04,11,55,11.10
2010,11,04,11,56,11.10
2010,11,04,11,57,11.10
2010,11,04,11,58,11.20
2010,11,04,11,59,11.30
2010,11,04,12,00,11.40
2010,11,04,12,01,11.40
2010,11,04,12,02,11.60
2010,11,04,12,03,11.70
2010,11,04,12,04,11.80
2010,11,04,12,05,11.80
2010,11,04,12,06,11.90
2010,11,04,12,07,12.00
2010,11,04,12,08,12.00
2010,11,04,12,09,12.10
2010,11,04,12,10,12.10
2010,11,04,12,11,12.20
2010,11,04,12,12,12.20
2010,11,04,12,13,12.30
2010,11,04,12,14,12.30
2010,11,04,12,15,12.40
2010,11,04,12,16,12.50
2010,11,04,12,17,12.60
2010,11,04,12,18,12.70
2010,11,04,12,19,12.80
2010,11,04,12,20,12.90
2010,11,04,12,21,13.00
2010,11,04,12,22,13.00
2010,11,04,12,23,13.10
2010,11,04,12,24,13.10
2010,11,04,12,25,13.20
2010,11,04,12,26,13.20
2010,11,04,12,27,13.10
2010,11,04,12,28,13.10
2010,11,04,12,29,13.00
2010,11,04,12,30,13.00
2010,11,04,12,31,13.00
2010,11,04,12,32,13.00
2010,11,04,12,33,13.00
2010,11,04,12,34,13.00
2010,11,04,12,35,12.90
2010,11,04,12,36,12.80
2010,11,04,12,37,12.80
2010,11,04,12,38,12.70
2010,11,04,12,39,12.70
2010,11,04,12,40,12.60
2010,11,04,12,41,12.60
2010,11,04,12,42,12.50
2010,11,04,12,43,12.50
2010,11,04,12,44,12.50
2010,11,04,12,45,12.50
2010,11,04,12,46,12.40
2010,11,04,12,47,12.40
2010,11,04,12,48,12.40
2010,11,04,12,49,12.40
2010,11,04,12,50,12.40
2010,11,04,12,51,12.40
2010,11,04,12,52,12.40
2010,11,04,12,53,12.40
2010,11,04,12,54,12.40
2010,11,04,12,55,12.40
2010,11,04,12,56,12.40
2010,11,04,12,57,12.50
2010,11,04,12,58,12.50
2010,11,04,12,59,12.60
2010,11,04,13,00,12.50
2010,11,04,13,01,12.50
2010,11,04,13,02,12.40
2010,11,04,13,03,12.40
2010,11,04,13,04,12.40
2010,11,04,13,05,12.40
2010,11,04,13,06,12.40
2010,11,04,13,07,12.30
2010,11,04,13,08,12.30
2010,11,04,13,09,12.20
2010,11,04,13,10,12.10
2010,11,04,13,11,12.10
2010,11,04,13,12,12.00
2010,11,04,13,13,11.90
2010,11,04,13,14,11.80
2010,11,04,13,15,11.70
2010,11,04,13,16,11.70
2010,11,04,13,17,11.60
2010,11,04,13,18,11.60
2010,11,04,13,19,11.60
2010,11,04,13,20,11.60
2010,11,04,13,21,11.60
2010,11,04,13,22,11.60
2010,11,04,13,23,11.60
2010,11,04,13,24,11.60
2010,11,04,13,25,11.60
2010,11,04,13,26,11.60
2010,11,04,13,27,11.60
2010,11,04,13,28,11.60
2010,11,04,13,29,11.60
2010,11,04,13,30,11.60
2010,11,04,13,31,11.60
2010,11,04,13,32,11.50
2010,11,04,13,33,11.40
2010,11,04,13,34,11.40
2010,11,04,13,35,11.40
2010,11,04,13,36,11.50
2010,11,04,13,37,11.60
2010,11,04,13,38,11.60
2010,11,04,13,39,11.60
2010,11,04,13,40,11.60
2010,11,04,13,41,11.70
2010,11,04,13,42,11.70
2010,11,04,13,43,11.80
2010,11,04,13,44,11.80
2010,11,04,13,45,11.80
2010,11,04,13,46,11.80
2010,11,04,13,47,11.90
2010,11,04,13,48,12.00
2010,11,04,13,49,12.10
2010,11,04,13,50,12.20
2010,11,04,13,51,12.40
2010,11,04,13,52,12.50
2010,11,04,13,53,12.60
2010,11,04,13,54,12.80
2010,11,04,13,55,12.80
2010,11,04,13,56,12.80
2010,11,04,13,57,12.80
2010,11,04,13,58,12.80
2010,11,04,13,59,12.80
2010,11,04,14,00,12.80
2010,11,04,14,01,12.90
2010,11,04,14,02,13.00
2010,11,04,14,03,13.00
2010,11,04,14,04,13.00
2010,11,04,14,05,12.90
2010,11,04,14,06,12.80
2010,11,04,14,07,12.80
2010,11,04,14,08,12.90
2010,11,04,14,09,13.00
2010,11,04,14,10,13.10
2010,11,04,14,11,13.10
2010,11,04,14,12,13.10
2010,11,04,14,13,13.10
2010,11,04,14,14,13.00
2010,11,04,14,15,13.00
2010,11,04,14,16,13.00
2010,11,04,14,17,13.00
2010,11,04,14,18,13.10
2010,11,04,14,19,13.10
2010,11,04,14,20,13.10
2010,11,04,14,21,13.10
2010,11,04,14,22,12.90
2010,11,04,14,23,12.80
2010,11,04,14,24,12.80
2010,11,04,14,25,12.70
2010,11,04,14,26,12.50
2010,11,04,14,27,12.40
2010,11,04,14,28,12.40
2010,11,04,14,29,12.40
2010,11,04,14,30,12.40
2010,11,04,14,31,12.30
2010,11,04,14,32,12.30
2010,11,04,14,33,12.30
2010,11,04,14,34,12.30
2010,11,04,14,35,12.30
2010,11,04,14,36,12.30
2010,11,04,14,37,12.30
2010,11,04,14,38,12.30
2010,11,04,14,39,12.30
2010,11,04,14,40,12.20
2010,11,04,14,41,12.10
2010,11,04,14,42,12.00
2010,11,04,14,43,11.90
2010,11,04,14,44,11.90
2010,11,04,14,45,11.90
2010,11,04,14,46,11.80
2010,11,04,14,47,11.80
2010,11,04,14,48,11.80
2010,11,04,14,49,11.80
2010,11,04,14,50,11.70
2010,11,04,14,51,11.70
2010,11,04,14,52,11.70
2010,11,04,14,53,11.80
2010,11,04,14,54,11.80
2010,11,04,14,55,11.80
2010,11,04,14,56,11.80
2010,11,04,14,57,11.80
2010,11,04,14,58,11.80
2010,11,04,14,59,11.70
2010,11,04,15,00,11.70
2010,11,04,15,01,11.70
2010,11,04,15,02,11.60
2010,11,04,15,03,11.60
2010,11,04,15,04,11.50
2010,11,04,15,05,11.40
2010,11,04,15,06,11.40
2010,11,04,15,07,11.40
2010,11,04,15,08,11.40
2010,11,04,15,09,11.40
2010,11,04,15,10,11.40
2010,11,04,15,11,11.40
2010,11,04,15,12,11.30
2010,11,04,15,13,11.30
2010,11,04,15,14,11.20
2010,11,04,15,15,11.20
2010,11,04,15,16,11.20
2010,11,04,15,17,11.20
2010,11,04,15,18,11.20
2010,11,04,15,19,11.30
2010,11,04,15,20,11.30
2010,11,04,15,21,11.30
2010,11,04,15,22,11.30
2010,11,04,15,23,11.30
2010,11,04,15,24,11.30
2010,11,04,15,25,11.30
2010,11,04,15,26,11.40
2010,11,04,15,27,11.30
2010,11,04,15,28,11.30
2010,11,04,15,29,11.30
2010,11,04,15,30,11.30
2010,11,04,15,31,11.40
2010,11,04,15,32,11.40
2010,11,04,15,33,11.40
2010,11,04,15,34,11.40
2010,11,04,15,35,11.40
2010,11,04,15,36,11.40
2010,11,04,15,37,11.40
2010,11,04,15,38,11.40
2010,11,04,15,39,11.40
2010,11,04,15,40,11.50
2010,11,04,15,41,11.40
2010,11,04,15,42,11.40
2010,11,04,15,43,11.50
2010,11,04,15,44,11.60
2010,11,04,15,45,11.60
2010,11,04,15,46,11.60
2010,11,04,15,47,11.60
2010,11,04,15,48,11.60
2010,11,04,15,49,11.70
2010,11,04,15,50,11.70
2010,11,04,15,51,11.70
2010,11,04,15,52,11.80
2010,11,04,15,53,11.80
2010,11,04,15,54,11.70
2010,11,04,15,55,11.70
2010,11,04,15,56,11.60
2010,11,04,15,57,11.60
2010,11,04,15,58,11.60
2010,11,04,15,59,11.60
2010,11,04,16,00,11.60
2010,11,04,16,01,11.60
2010,11,04,16,02,11.60
2010,11,04,16,03,11.50
2010,11,04,16,04,11.40
2010,11,04,16,05,11.40
2010,11,04,16,06,11.40
2010,11,04,16,07,11.30
2010,11,04,16,08,11.30
2010,11,04,16,09,11.20
2010,11,04,16,10,11.10
2010,11,04,16,11,11.10
2010,11,04,16,12,11.10
2010,11,04,16,13,11.10
2010,11,04,16,14,11.10
2010,11,04,16,15,11.00
2010,11,04,16,16,10.90
2010,11,04,16,17,10.90
2010,11,04,16,18,10.90
2010,11,04,16,19,10.80
2010,11,04,16,20,10.80
2010,11,04,16,21,10.80
2010,11,04,16,22,10.70
2010,11,04,16,23,10.70
2010,11,04,16,24,10.70
2010,11,04,16,25,10.70
2010,11,04,16,26,10.70
2010,11,04,16,27,10.70
2010,11,04,16,28,10.70
2010,11,04,16,29,10.70
2010,11,04,16,30,10.70
2010,11,04,16,31,10.60
2010,11,04,16,32,10.60
2010,11,04,16,33,10.60
2010,11,04,16,34,10.60
2010,11,04,16,35,10.60
2010,11,04,16,36,10.60
2010,11,04,16,37,10.60
2010,11,04,16,38,10.60
2010,11,04,16,39,10.60
2010,11,04,16,40,10.60
2010,11,04,16,41,10.60
2010,11,04,16,42,10.60
2010,11,04,16,43,10.60
2010,11,04,16,44,10.60
2010,11,04,16,45,10.70
2010,11,04,16,46,10.70
2010,11,04,16,47,10.70
2010,11,04,16,48,10.70
2010,11,04,16,49,10.70
2010,11,04,16,50,10.70
2010,11,04,16,51,10.70
2010,11,04,16,52,10.70
2010,11,04,16,53,10.70
2010,11,04,16,54,10.70
2010,11,04,16,55,10.70
2010,11,04,16,56,10.70
2010,11,04,16,57,10.70
2010,11,04,16,58,10.70
2010,11,04,16,59,10.70
2010,11,04,17,00,10.70
2010,11,04,17,01,10.70
2010,11,04,17,02,10.70
2010,11,04,17,03,10.70
2010,11,04,17,04,10.70
2010,11,04,17,05,10.70
2010,11,04,17,06,10.70
2010,11,04,17,07,10.60
2010,11,04,17,08,10.60
2010,11,04,17,09,10.60
2010,11,04,17,10,10.60
2010,11,04,17,11,10.60
2010,11,04,17,12,10.60
2010,11,04,17,13,10.60
2010,11,04,17,14,10.50
2010,11,04,17,15,10.40
2010,11,04,17,16,10.50
2010,11,04,17,17,10.60
2010,11,04,17,18,10.60
2010,11,04,17,19,10.60
2010,11,04,17,20,10.60
2010,11,04,17,21,10.60
2010,11,04,17,22,10.60
2010,11,04,17,23,10.60
2010,11,04,17,24,10.60
2010,11,04,17,25,10.60
2010,11,04,17,26,10.60
2010,11,04,17,27,10.60
2010,11,04,17,28,10.60
2010,11,04,17,29,10.60
2010,11,04,17,30,10.60
2010,11,04,17,31,10.60
2010,11,04,17,32,10.60
2010,11,04,17,33,10.60
2010,11,04,17,34,10.60
2010,11,04,17,35,10.60
2010,11,04,17,36,10.60
2010,11,04,17,37,10.60
2010,11,04,17,38,10.60
2010,11,04,17,39,10.50
2010,11,04,17,40,10.50